Location: Georgenberg
(48.1500°N, 16.2500°E)
Time: 19:41:48
(UTC+01:00)

Tiangong - Visible Passes

Search period start: 08 December 2022 00:00
Search period end: 18 December 2022 00:00
Orbit: 386 x 392 km, 41.5° (Epoch: 08 December)

Date Brightness Start Highest point End Pass type
(mag) Time Alt. Az. Time Alt. Az. Time Alt. Az.
08 Dec 0.0 16:47:55 10° WSW 16:50:33 24° S 16:53:12 10° SE visible
08 Dec 0.6 18:25:05 10° SW 18:26:53 14° SSW 18:27:13 14° SSW visible
09 Dec 0.4 17:26:36 10° WSW 17:28:52 18° SSW 17:31:09 10° SSE visible
11 Dec 0.9 17:07:18 10° SW 17:08:57 14° SSW 17:10:38 10° S visible
